Location: Freistadt
(48.5112°N, 14.5013°E)
Time: 07:45:41
(UTC+02:00)

CUBEBUG 2 - Pass Details

Date: 10 April 2023
Orbit: 577 x 686 km, 97.8° (Epoch: 29 May)

Event Time Altitude Azimuth Distance (km) Brightness Sun altitude
Rises 05:17:34 0° 358° (N) 3,045 ? -11.0°
Reaches altitude 10° 05:20:47 10° 335° (NNW) 2,108 ? -10.5°
Maximum altitude 05:23:11 14° 303° (WNW) 1,820 ? -10.1°
Enters shadow 05:25:30 10° 272° (W) 2,063 ? -9.8°
